Mpanda Airport

Jump to: basic info | weather | comments

Related pages: nearby airports | nearby navaids | notams | map

Basic information (top)

Codes: HTMP
Location: lon -6.350000, lat 31.083000, elev 3,520 ft / 1,073 m msl
Status: small_airport

Weather (top)

Current conditions for Sumbawanga Airport 103nm (191km) SSE (rec'd 2014/09/30 15:00Z):

HTSU 301500Z 06006KT 9999 FEW022 25/04 Q1021

Airport forecast for Julius Nyerere International Airport 485nm (899km) E (rec'd 2014/09/30 12:51Z):

TAF HTDA 301000Z 3012/0118 09010KT 9999 U2013SHRA SCT024 BKN080 FM 301800 08005KT SCT023 
      BECMG 0102/0105 00000KT FEW023 
      BECMG 0106/0112 VRB10KT BKN027 
      BECMG 0115/0118 12005KT FEW022

Latest comments (top)

re: Uwanja wa ndege Mpanda: Thanks God Mpanda is on the right path, ... [read]

Uwanja wa ndege Mpanda: Uwanja ni mzuri saana, [read]

matengenezo: uwanja ukikamilika utakuwa mzuri.mmejitahidi. [read]

More... (top)

See also NOTAMs and nearby airports and navaids, or visit the Mpanda Airport page at the main OurAirports website..